Simultaneous Nadir Overpasses (SNOs) Predictions

Prediction of SNOs between GOES-14 and NPP Satellite Orbit:

Table of predicted SNOs for the next 14.0 days since TLE Epoch: 1/24/2025
Index Date Time (GOES-14) GOES-14 Lat,Lon NPP Lat,Lon Distance(km) Time Diff (sec)
1 01/27/2025 08:40:12 0.34,-108.01 0.41,-108.34 37.99 80
2 01/28/2025 08:18:47 0.32,-107.99 -0.60,-103.81 476.46 80
3 01/29/2025 20:43:23 -0.35,-107.93 -0.64,-109.10 133.45 80
4 01/30/2025 20:21:59 -0.34,-107.92 0.44,-104.58 381.15 80
5 02/01/2025 08:46:26 0.37,-107.93 0.79,-109.84 217.18 80
6 02/02/2025 08:25:02 0.35,-107.92 -0.23,-105.31 297.46 80
7 02/03/2025 20:49:37 -0.38,-107.86 -0.99,-110.60 312.31 80
8 02/04/2025 20:28:13 -0.37,-107.84 0.04,-106.07 202.27 80
9 02/06/2025 08:52:40 0.39,-107.85 1.18,-111.33 396.45 80
10 02/07/2025 08:31:16 0.38,-107.83 0.14,-106.80 118.03 80
